Location: Goheenville
(40.9070°N, 79.3720°W)
Time: 23:41:27
(UTC-05:00)

Meteor 2-10 Rocket - Visible Passes

Search period start: 18 January 2017 00:00
Search period end: 28 January 2017 00:00
Orbit: 734 x 885 km, 81.2° (Epoch: 18 January)

Date Brightness Start Highest point End Pass type
(mag) Time Alt. Az. Time Alt. Az. Time Alt. Az.
24 Jan 5.6 18:58:33 10° NNE 18:58:42 11° NNE 18:58:42 11° NNE visible
24 Jan 6.2 20:39:52 10° NNW 20:39:54 10° NNW 20:39:54 10° NNW visible
25 Jan 5.3 18:34:58 10° NNE 18:35:40 12° NE 18:35:40 12° NE visible
25 Jan 5.4 20:15:24 10° NNW 20:16:53 20° NNW 20:16:53 20° NNW visible
26 Jan 5.3 18:12:25 10° NE 18:13:03 10° ENE 18:13:03 10° ENE visible
26 Jan 4.2 19:51:02 10° N 19:54:19 42° NNW 19:54:19 42° NNW visible
27 Jan 3.3 19:26:47 10° N 19:31:47 66° E 19:32:49 52° SE visible
27 Jan 6.3 21:11:03 10° WNW 21:13:12 13° W 21:14:15 12° W visible
